TAF and METAR

Decoding for American and Canadian METARs and TAFs is not fully implemented.

Could not understand the following METAR

K0CO 251435Z AUTO 33013G18KT M1/4SM HZ OVC002 M16/M25 A2952 RMK AO2
No TAF available for Empire
Empire in United States of America at 3807m

Latest 5 airports